TianYi 2 (43155 NORAD) Tracking and Keplerian Element Data

This shows tracking and keplerian element data for the satellite.

Feedback or suggestion? Click here.




ElementValue
Catalog43155
NameTianYi 2
Epoch Orbit6863
Epoch Day108.82342431
Epoch Year2019
RAAN182.6358
Inclination97.4903
Eccentricity0.0018238
Argument of Perigee168.7254
Mean Anonmoly286.0201
Mean Motion15.11036782
Decay Rate9.93E-06
L11 43155U 18008A 19108.82342431 .00000993 00000-0 63046-4 0 9995
L22 43155 97.4903 182.6358 0018238 168.7254 286.0201 15.11036782 68636

Live tracking and technical data element details for TianYi 2 (NORAD 43155). TianYi 2 can be tracked NOW for your location showing map with azimuth and elevation plus other details from your city location.

Track the satellite on the map from your city or location and see movement details for azimuth, elevation, latitude, longitude, range, height, and movement on the map or in text.







IsCatalogInMostPopularTable: catalog: 43155, numindb: 187
Update: records affected: 1



GetName: 43155 TianYi 2

Hit Count: updated at: Wed, 24 Apr 2019 17:54:12 GMT